FW9176 Weather Reports


time (UTC)temp
C
wind
direction
speed
KPH
gust
KPH
rain 1hr
cm
rain 24hr
cm
rain mn
cm
humidity
%
barometer
mb
20260905071611 26 0 0.0 0.0 0.00 0.00 0.00 80 1009.9
20260905070059 26 0 0.0 0.0 0.00 0.00 0.00 80 1010.0
20260905064606 26 0 0.0 0.0 0.00 0.00 0.00 79 1010.3
20260905063100 26 0 0.0 0.0 0.00 0.00 0.00 78 1010.2
20260905061601 26 0 0.0 0.0 0.00 0.00 0.00 78 1010.4
20260905060107 26 0 0.0 0.0 0.00 0.00 0.00 77 1010.3
20260905054602 26 0 0.0 0.0 0.00 0.00 0.00 76 1010.2
20260905053108 27 0 0.0 0.0 0.00 0.00 0.00 76 1010.4
20260905051559 27 0 0.0 0.0 0.00 0.00 0.00 76 1010.4
20260905050059 27 0 0.0 0.0 0.00 0.00 0.00 75 1010.4
20260905044601 27 0 0.0 0.0 0.00 0.00 0.00 75 1010.5
20260905043102 27 0 0.0 3.2 0.00 0.00 0.00 74 1010.7
20260905041600 28 0 0.0 1.6 0.00 0.00 0.00 73 1010.7
20260905040105 28 0 0.0 0.0 0.00 0.00 0.00 75 1010.3
20260905034617 28 0 0.0 0.0 0.00 0.00 0.00 74 1010.3
20260905033118 28 0 0.0 0.0 0.00 0.00 0.00 75 1010.5
20260905031612 28 0 0.0 0.0 0.00 0.00 0.00 74 1010.9
20260905030106 29 0 0.0 0.0 0.00 0.00 0.00 74 1011.0
20260905024557 29 0 0.0 0.0 0.00 0.00 0.00 74 1011.0
20260905023125 30 0 0.0 0.0 0.00 0.00 0.00 73 1010.9
20260905021600 30 0 0.0 1.6 0.00 0.00 0.00 72 1010.8
20260905014601 30 0 0.0 0.0 0.00 0.00 0.00 71 1010.6
20260905013100 30 0 0.0 0.0 0.00 0.00 0.00 71 1010.5
20260905011602 30 0 0.0 0.0 0.00 0.00 0.00 71 1010.4
20260905010110 31 0 0.0 0.0 0.00 0.00 0.00 70 1010.1
20260905004630 31 0 0.0 1.6 0.00 0.00 0.00 69 1010.1
20260905003120 31 0 0.0 0.0 0.00 0.00 0.00 68 1009.9
20260905001603 32 0 0.0 4.8 0.00 0.00 0.00 66 1009.8
20260905000132 32 0 0.0 4.8 0.00 0.00 0.00 64 1009.6
20260904234600 33 0 0.0 1.6 0.00 0.00 0.00 62 1009.7
20260904233058 33 0 0.0 3.2 0.00 0.00 0.00 60 1009.8
20260904231602 33 0 0.0 6.4 0.00 0.00 0.00 61 1009.9
20260904230114 33 283 0.0 4.8 0.00 0.00 0.00 61 1009.9
20260904224600 33 288 0.0 8.0 0.00 0.00 0.00 61 1009.9
20260904223056 33 304 1.6 11.3 0.00 0.00 0.00 59 1010.0
20260904221557 33 0 0.0 4.8 0.00 0.00 0.00 60 1009.9
20260904220106 33 255 0.0 6.4 0.00 0.00 0.00 59 1009.9
20260904214558 33 243 0.0 4.8 0.00 0.00 0.00 60 1010.0
20260904213058 33 271 0.0 8.0 0.00 0.00 0.00 60 1009.8
20260904211603 33 160 1.6 9.7 0.00 0.00 0.00 61 1009.9
20260904210058 33 229 3.2 12.9 0.00 0.00 0.00 61 1009.7
20260904204559 33 151 0.0 3.2 0.00 0.00 0.00 60 1010.1
20260904203101 33 0 0.0 6.4 0.00 0.00 0.00 61 1010.4
20260904201614 32 0 0.0 11.3 0.00 0.00 0.00 62 1010.6
20260904200100 32 0 1.6 14.5 0.00 0.00 0.00 62 1010.9
20260904194555 32 150 1.6 11.3 0.00 0.00 0.00 63 1011.0
20260904193100 32 184 1.6 11.3 0.00 0.00 0.00 62 1011.3
20260904191556 32 159 0.0 16.1 0.00 0.00 0.00 61 1011.4
20260904190058 32 116 1.6 11.3 0.00 0.00 0.00 62 1011.7
20260904184602 31 0 1.6 14.5 0.00 0.00 0.00 61 1011.9
20260904183115 31 0 0.0 6.4 0.00 0.00 0.00 59 1011.8
20260904181556 30 74 1.6 9.7 0.00 0.00 0.00 60 1011.9
20260904180103 30 86 1.6 6.4 0.00 0.00 0.00 61 1012.7
20260904174601 30 77 0.0 4.8 0.00 0.00 0.00 64 1013.3
20260904173101 28 131 0.0 6.4 0.00 0.00 0.00 65 1013.7
20260904171614 28 65 1.6 6.4 0.00 0.00 0.00 64 1014.0
20260904170125 28 128 3.2 6.4 0.00 0.00 0.00 64 1014.1
20260904164619 27 0 0.0 6.4 0.00 0.00 0.00 67 1014.4
20260904163101 27 53 1.6 11.3 0.00 0.00 0.00 67 1014.5
20260904161559 27 41 3.2 8.0 0.00 0.00 0.00 68 1014.7
20260904160059 28 52 3.2 6.4 0.00 0.00 0.00 67 1014.3
20260904154559 27 53 1.6 4.8 0.00 0.00 0.00 71 1014.1
20260904153109 27 62 0.0 4.8 0.00 0.00 0.00 73 1013.7
20260904151601 27 0 0.0 4.8 0.00 0.00 0.00 74 1013.5
20260904150058 27 59 0.0 3.2 0.00 0.00 0.00 74 1013.2
20260904144559 28 0 0.0 0.0 0.00 0.00 0.00 73 1013.0
20260904143106 27 0 0.0 1.6 0.00 0.00 0.00 73 1013.0
20260904141602 27 0 0.0 3.2 0.00 0.00 0.00 75 1012.9
20260904140100 27 0 0.0 3.2 0.00 0.00 0.00 74 1012.7
20260904134601 27 0 0.0 0.0 0.00 0.00 0.00 73 1012.5
20260904133100 26 0 0.0 0.0 0.00 0.00 0.00 74 1012.2
20260904131612 26 0 0.0 0.0 0.00 0.00 0.00 76 1012.3
20260904130056 25 0 0.0 0.0 0.00 0.00 0.00 78 1012.0
20260904124559 25 0 0.0 0.0 0.00 0.00 0.00 79 1011.9
20260904123100 25 0 0.0 0.0 0.00 0.00 0.00 80 1011.7
20260904121601 25 0 0.0 0.0 0.00 0.00 0.00 79 1011.2
20260904120103 25 0 0.0 0.0 0.00 0.00 0.00 79 1010.9
20260904114606 25 0 0.0 0.0 0.00 0.00 0.00 78 1010.6
20260904113100 25 0 0.0 0.0 0.00 0.00 0.00 78 1010.4
20260904111558 25 0 0.0 0.0 0.00 0.00 0.00 77 1010.4
20260904104601 25 0 0.0 3.2 0.00 0.00 0.00 76 1009.9
20260904103112 25 0 0.0 0.0 0.00 0.00 0.00 76 1009.9
20260904101610 26 136 0.0 3.2 0.00 0.00 0.00 76 1010.0
20260904100111 25 0 0.0 1.6 0.00 0.00 0.00 77 1009.8
20260904094611 25 0 0.0 1.6 0.00 0.00 0.00 78 1009.7
20260904093108 25 0 0.0 0.0 0.00 0.00 0.00 79 1009.9
20260904091611 25 0 0.0 0.0 0.00 0.00 0.00 79 1010.2
20260904090057 25 0 0.0 0.0 0.00 0.00 0.00 79 1010.5
20260904084558 25 0 0.0 0.0 0.00 0.00 0.00 80 1010.7
20260904083104 26 0 0.0 0.0 0.00 0.00 0.00 79 1010.7
20260904081609 26 0 0.0 0.0 0.00 0.00 0.00 78 1010.6
20260904074559 26 0 0.0 4.8 0.00 0.00 0.00 78 1010.1
20260904073126 26 141 0.0 4.8 0.00 0.00 0.00 78 1009.8